Showing default

UND ROADS 1, 64535

Orbit data source: Space-Track

UND ROADS 1, 64535 is an American payload satellite in SSO that was launched on Mon, 23 Jun 2025 UTC via an FALCON 9 launch vehicle from the Air Force Western Test Range (AFWTR). Payload-class satellites include a variety of spacecraft equipped with specific instruments for various scientific and technological missions. These include communications satellites like Starlink; space stations such as the ISS; scientific satellites like the Hubble; Earth observation satellites from companies like Planet Labs, Umbra, and HawkEye 360; GPS; miniature CubeSats for education and research; and military/defense satellites.

Loading next visibility...
Identifier
64535, 2025-135H
Orbit
SSO
Country
Flag of USUS
Related business
Manufacturer
UND
Mission
Operational Amateur Technology
Bus & Motor
CUBESAT 3U, Unknown motor
Mass
5.4 kg wet, 5.4 kg dry
Launch date (UTC)
2025-06-23 (7 months ago)
Launch vehicle
FALCON 9
Launch site
Air Force Western Test Range (AFWTR)
Object type
Payload
Rocket body
Debris
Shape & HBR
Box, 0.2 m
Radar Cross Section
0.035 m², Small (<0.1 m²)

Expand to show TLE details & history
Last TLE update: 11 hours ago

TLE from 11 hours ago
0 UND ROADS 1
1 64535U 25135H   26035.82645475  .00009621  00000-0  44166-3 0  9998
2 64535  97.4538 152.0239 0003388 285.7182  74.3680 15.20611316 34739
Epoch: 2026-02-04T19:50Z
TLE epoch observation values (Epoch: 2026-02-04T19:50:05.690Z)
Latitude
0.00003°
Longitude
79.51273°
Altitude
506.458 km
Speed
7.611 km/s
True Right ascension
10h 08m 05s
True Declination
0° 00' 00"
Sunlit
Object was in full shadow at epoch
Visualization orbit readout
Latitude
Unknown
Longitude
Unknown
Altitude
Unknown
Speed
Unknown
Apparent Right ascension
Unknown
Apparent Declination
Unknown
Sunlit
N/A
Visualization observer readout
Local Sidereal Time
09:13:29
Azimuth
Unknown
Elevation
Unknown
Doppler factor
Unknown
Orbital elements
Apogee altitude
503.293 km
Perigee altitude
498.632 km
Semi-major axis
6,879.1 km
Eccentricity
0.00034
Inclination
97.4538°
RAAN
152.0239°
Arg. of periapsis
285.7182°
True anomaly
74.40539°
Mean anomaly
74.368°
Eccentric anomaly
74.3867°
Mean motion
3.80405 °/min
Orbital period
94.64 mins
BSTAR
0.00044166
Loading maneuver chart data...
Computing Atmospheric mass density...
Loading historical data...
Loading historical data...
Loading historical data...
Loading historical data...
Loading historical data...
Loading historical data...
Loading historical data...

Documentation

Showing up to 5 results
|